Location: Krakow
(50.0830°N, 19.9170°E)
Time: 19:33:01
(UTC+01:00)

deb Explorer IX - All Passes

Search period start: 07 February 2023 00:00
Search period end: 17 February 2023 00:00
Orbit: 534 x 1048 km, 38.8° (Epoch: 05 February)

Date Brightness Start Highest point End Pass type
(mag) Time Alt. Az. Time Alt. Az. Time Alt. Az.
07 Feb - 02:19:22 10° SSW 02:21:46 14° SSE 02:24:03 10° SE night (unlit)
07 Feb - 04:03:55 10° SW 04:06:56 18° S 04:09:48 10° SE visible
07 Feb - 05:50:18 10° SW 05:52:00 12° SSW 05:53:39 10° S visible
08 Feb - 01:46:36 10° SSW 01:49:04 14° SSE 01:51:25 10° SE night (unlit)
08 Feb - 03:31:04 10° SW 03:34:15 19° S 03:37:14 10° SE visible
08 Feb - 05:17:18 10° SW 05:19:21 13° SSW 05:21:19 10° SSE visible
09 Feb - 01:13:47 10° SSW 01:16:20 14° SSE 01:18:43 10° SE night (unlit)
09 Feb - 02:58:10 10° SW 03:01:32 19° S 03:04:39 10° SE visible
09 Feb - 04:44:16 10° SW 04:46:39 14° SSW 04:48:55 10° SSE visible
10 Feb - 00:40:55 10° SSW 00:43:32 14° SSE 00:46:00 10° SE night (unlit)
10 Feb - 02:25:12 10° SW 02:28:46 20° S 02:32:02 10° SE night (unlit)
10 Feb - 04:11:12 10° SW 04:13:54 16° SSW 04:16:28 10° SSE visible
11 Feb - 00:08:01 10° S 00:10:43 14° SSE 00:13:13 10° SE night (unlit)
11 Feb - 01:52:11 10° SW 01:55:56 21° S 01:59:23 10° SE night (unlit)
11 Feb - 03:38:06 10° SW 03:41:07 17° SSW 03:43:57 10° SSE visible
11 Feb - 23:35:05 10° S 23:37:49 14° SSE 23:40:23 10° SE night (unlit)
12 Feb - 01:19:06 10° SW 01:23:05 21° S 01:26:40 10° SE night (unlit)
12 Feb - 03:04:57 10° WSW 03:08:18 18° SSW 03:11:23 10° SSE visible
12 Feb - 23:02:08 10° S 23:04:53 14° SSE 23:07:29 10° SE night (unlit)
13 Feb - 00:45:59 10° SW 00:50:10 22° S 00:53:56 10° SE night (unlit)
13 Feb - 02:31:46 10° WSW 02:35:25 20° SSW 02:38:46 10° SE night (unlit)
13 Feb - 22:29:11 10° S 22:31:55 13° SSE 22:34:30 10° SE night (unlit)
14 Feb - 00:12:49 10° SW 00:17:12 22° S 00:21:09 10° ESE night (unlit)
14 Feb - 01:58:32 10° WSW 02:02:30 21° S 02:06:06 10° SE night (unlit)
14 Feb - 03:46:26 10° SW 03:47:27 11° SSW 03:48:27 10° SSW night (unlit)
14 Feb - 21:56:14 10° S 21:58:53 13° SSE 22:01:26 10° SE night (unlit)
14 Feb - 23:39:38 10° SW 23:44:11 23° S 23:48:17 10° ESE night (unlit)
15 Feb - 01:25:16 10° WSW 01:29:32 23° S 01:33:22 10° SE night (unlit)
15 Feb - 03:12:33 10° SW 03:14:33 12° SSW 03:16:26 10° S night (unlit)
15 Feb - 21:23:17 10° S 21:25:49 13° SSE 21:28:15 10° SE night (unlit)
15 Feb - 23:06:24 10° SW 23:11:06 23° S 23:15:22 10° ESE night (unlit)
16 Feb - 00:51:57 10° WSW 00:56:30 24° S 01:00:34 10° SE night (unlit)
16 Feb - 02:38:56 10° SW 02:41:35 14° SSW 02:44:04 10° S night (unlit)
16 Feb - 20:50:24 10° S 20:52:43 12° SSE 20:54:58 10° SE night (unlit)
16 Feb - 22:33:09 10° SW 22:37:59 23° SSE 22:42:24 10° ESE night (unlit)
